weather.gov     
National Weather Service

Terminal Aerodrome Forecast
NWS Homepage
This page is being discontinued on March 12, 2014.
The same data is available at this site. Please update your bookmarks.
Thank you, and we apologize for the inconvenience.
Please send an email to SR-SRH.Webmaster@noaa.gov with any concerns.


Current Version
Previous Version:    01  02  03  04  05  06  07  08  09  10  11  12  13  14  15  16  17  18  19  20  21  22  23  
[Printable]
418
FTUS45 KRIW 202300
TAFBPI
TAF
KBPI 202326Z 2100/2124 31011G18KT P6SM VCTS SCT060CB BKN100
     FM210200 36008KT P6SM VCSH SCT090 BKN130
     FM210700 VRB05KT P6SM SCT040 BKN200
      TEMPO 2111/2115 5SM BR BKN008
     FM211900 29012KT P6SM VCTS SCT050CB BKN100=


U.S. Dept. of Commerce
NOAA National Weather Service
1325 East West Highway
Silver Spring, MD 20910
E-mail: w-nws.webmaster@noaa.gov
Page last modified: May 16, 2007
NATIONAL WEATHER SERVICE: for Safety, for Work, for Fun - FOR LIFE